W1JCN Weather Reports


Display with metric or nautical units.
time (UTC)temp
F
wind
direction
speed
MPH
gust
MPH
rain 1hr
in
rain 24hr
in
rain mn
in
humidity
%
barometer
mb
20260831145404 68 319 1.0 3.0 0.00 0.00 0.00 66 1019.2
20260831144504 68 319 0.0 3.0 0.00 0.00 0.00 67 1019.2
20260831143604 66 0 0.0 0.0 0.00 0.00 0.00 75 1019.3
20260831142705 64 317 0.0 3.0 0.00 0.00 0.00 75 1019.4
20260831141805 63 325 1.0 5.0 0.00 0.00 0.00 79 1019.4
20260831140004 62 321 0.0 4.0 0.00 0.00 0.00 83 1019.3
20260831135104 61 308 1.0 4.0 0.00 0.00 0.00 84 1019.4
20260831133304 59 0 0.0 0.0 0.00 0.00 0.00 89 1019.1
20260831132404 58 303 0.0 3.0 0.00 0.00 0.00 90 1019.0
20260831131504 57 0 0.0 0.0 0.00 0.00 0.00 92 1019.0
20260831130604 57 312 0.0 1.0 0.00 0.00 0.00 92 1018.9
20260831124804 56 312 0.0 1.0 0.00 0.00 0.00 93 1019.0
20260831123904 56 312 0.0 1.0 0.00 0.00 0.00 94 1018.8
20260831122104 55 0 0.0 0.0 0.00 0.00 0.00 94 1018.8
20260831121204 55 0 0.0 0.0 0.00 0.00 0.00 94 1018.8
20260831120304 55 0 0.0 0.0 0.00 0.00 0.00 94 1018.8
20260831115404 54 0 0.0 0.0 0.00 0.00 0.00 94 1019.0
20260831113604 53 0 0.0 0.0 0.00 0.00 0.00 94 1018.9
20260831111804 53 0 0.0 0.0 0.00 0.00 0.00 94 1018.6
20260831110904 53 0 0.0 0.0 0.00 0.00 0.00 94 1018.5
20260831110004 53 0 0.0 0.0 0.00 0.00 0.00 94 1018.5
20260831104204 53 0 0.0 0.0 0.00 0.00 0.00 93 1018.3
20260831103304 53 0 0.0 0.0 0.00 0.00 0.00 93 1018.3
20260831102404 53 0 0.0 0.0 0.00 0.00 0.00 93 1018.4
20260831100604 53 0 0.0 0.0 0.00 0.00 0.00 93 1018.3
20260831095704 53 0 0.0 0.0 0.00 0.00 0.00 93 1018.3
20260831094804 53 0 0.0 0.0 0.00 0.00 0.00 93 1018.2
20260831093904 54 0 0.0 0.0 0.00 0.00 0.00 93 1018.2
20260831093004 54 0 0.0 0.0 0.00 0.00 0.00 93 1018.2
20260831092104 54 0 0.0 0.0 0.00 0.00 0.00 93 1018.2
20260831091204 54 0 0.0 0.0 0.00 0.00 0.00 93 1017.9
20260831090304 54 0 0.0 0.0 0.00 0.00 0.00 93 1017.9
20260831085404 54 0 0.0 0.0 0.00 0.00 0.00 92 1017.9
20260831084504 54 0 0.0 0.0 0.00 0.00 0.00 93 1018.0
20260831083604 55 0 0.0 0.0 0.00 0.00 0.00 92 1017.9
20260831082704 55 0 0.0 0.0 0.00 0.00 0.00 92 1017.8
20260831081804 55 0 0.0 0.0 0.00 0.00 0.00 92 1017.8
20260831080904 56 0 0.0 0.0 0.00 0.00 0.00 92 1017.8
20260831075103 56 0 0.0 0.0 0.00 0.00 0.00 92 1017.7
20260831074204 56 0 0.0 0.0 0.00 0.00 0.00 92 1017.6
20260831072404 57 0 0.0 0.0 0.00 0.00 0.00 92 1017.4
20260831070603 58 0 0.0 0.0 0.00 0.00 0.00 91 1017.4
20260831065704 58 0 0.0 0.0 0.00 0.00 0.00 91 1017.3
20260831064804 58 0 0.0 0.0 0.00 0.00 0.00 91 1017.3
20260831063003 59 0 0.0 0.0 0.00 0.00 0.00 91 1017.3
20260831062103 59 0 0.0 0.0 0.00 0.00 0.00 91 1017.4
20260831060303 60 0 0.0 0.0 0.00 0.00 0.00 91 1017.5
20260831055403 60 0 0.0 0.0 0.00 0.00 0.00 91 1017.4
20260831054503 60 0 0.0 0.0 0.00 0.00 0.00 91 1017.4
20260831053603 60 0 0.0 0.0 0.00 0.00 0.00 90 1017.3
20260831052703 60 0 0.0 0.0 0.00 0.00 0.00 90 1017.4
20260831051803 61 310 0.0 1.0 0.00 0.00 0.00 90 1017.2
20260831050903 61 0 0.0 0.0 0.00 0.00 0.00 90 1017.3
20260831050003 61 0 0.0 0.0 0.00 0.00 0.00 90 1017.2
20260831044203 62 0 0.0 0.0 0.00 0.00 0.00 89 1017.0
20260831043303 62 0 0.0 0.0 0.00 0.00 0.00 89 1016.9
20260831041503 62 0 0.0 0.0 0.00 0.00 0.00 88 1016.9
20260831040603 62 0 0.0 0.0 0.00 0.00 0.00 88 1016.8
20260831035703 62 0 0.0 0.0 0.00 0.00 0.00 88 1016.7
20260831034804 63 0 0.0 0.0 0.00 0.00 0.00 87 1016.8
20260831033003 63 310 0.0 1.0 0.00 0.00 0.00 87 1016.9
20260831032103 63 0 0.0 0.0 0.00 0.00 0.00 86 1016.9
20260831030303 64 310 0.0 2.0 0.00 0.00 0.00 86 1016.8
20260831025403 64 311 0.0 2.0 0.00 0.00 0.00 85 1016.9
20260831024503 64 311 0.0 2.0 0.00 0.00 0.00 85 1016.8
20260831023603 64 0 0.0 0.0 0.00 0.00 0.00 85 1016.8
20260831022703 64 163 0.0 5.0 0.00 0.00 0.00 85 1016.6
20260831021803 64 161 0.0 1.0 0.00 0.00 0.00 85 1016.5
20260831020904 64 161 0.0 1.0 0.00 0.00 0.00 85 1016.5
20260831020003 65 161 0.0 1.0 0.00 0.00 0.00 85 1016.7
20260831015103 65 0 0.0 0.0 0.00 0.00 0.00 85 1016.5
20260831014203 65 161 0.0 1.0 0.00 0.00 0.00 85 1016.2
20260831012403 66 0 0.0 0.0 0.00 0.00 0.00 85 1016.3
20260831011503 66 161 0.0 1.0 0.00 0.00 0.00 84 1016.4
20260831010603 66 161 0.0 1.0 0.00 0.00 0.00 84 1016.2
20260831005703 66 0 0.0 0.0 0.00 0.00 0.00 84 1016.0
20260831004803 66 0 0.0 0.0 0.00 0.00 0.00 84 1015.9
20260831003903 66 0 0.0 0.0 0.00 0.00 0.00 84 1015.7
20260831003003 66 161 0.0 1.0 0.00 0.00 0.00 84 1015.6
20260831002103 66 161 0.0 1.0 0.00 0.00 0.00 84 1015.6
20260831001203 66 0 0.0 0.0 0.00 0.00 0.00 83 1015.5
20260831000303 66 0 0.0 0.0 0.00 0.00 0.00 82 1015.3
20260830234503 67 0 0.0 0.0 0.00 0.00 0.00 82 1015.1
20260830232703 68 161 0.0 1.0 0.00 0.00 0.00 80 1014.9
20260830231803 68 0 0.0 0.0 0.00 0.00 0.00 81 1014.9
20260830230902 68 160 0.0 4.0 0.00 0.00 0.00 79 1014.9
20260830230003 68 159 0.0 2.0 0.00 0.00 0.00 79 1015.0
20260830225103 69 0 0.0 0.0 0.00 0.00 0.00 79 1014.9
20260830224202 69 0 0.0 0.0 0.00 0.00 0.00 80 1015.0
20260830223303 69 0 0.0 0.0 0.00 0.00 0.00 80 1015.0
20260830222403 70 0 0.0 0.0 0.00 0.00 0.00 79 1015.1
20260830221503 70 0 0.0 0.0 0.00 0.00 0.00 79 1015.0
20260830220602 70 159 0.0 1.0 0.00 0.00 0.00 80 1015.0
20260830215702 70 160 0.0 1.0 0.00 0.00 0.00 80 1015.0
20260830214802 70 160 0.0 2.0 0.00 0.00 0.00 79 1014.8
20260830213902 70 0 0.0 0.0 0.00 0.00 0.00 80 1014.9
20260830213002 71 0 0.0 0.0 0.00 0.00 0.00 79 1015.0
20260830212102 71 160 0.0 2.0 0.00 0.00 0.00 76 1015.0
20260830211202 71 161 0.0 2.0 0.00 0.00 0.00 78 1015.0
20260830210302 71 0 0.0 0.0 0.00 0.00 0.00 78 1015.2
20260830205402 71 161 0.0 1.0 0.00 0.00 0.00 79 1015.1
20260830204502 71 0 0.0 0.0 0.00 0.00 0.00 77 1015.1
20260830203602 71 0 0.0 0.0 0.00 0.00 0.00 76 1015.4
20260830202702 72 161 0.0 2.0 0.00 0.00 0.00 73 1015.1
20260830201802 72 160 0.0 1.0 0.00 0.00 0.00 69 1015.1
20260830200902 73 160 0.0 1.0 0.00 0.00 0.00 71 1015.3
20260830200002 73 159 0.0 5.0 0.00 0.00 0.00 67 1015.4
20260830195102 73 0 0.0 0.0 0.00 0.00 0.00 70 1015.5
20260830194202 73 149 0.0 3.0 0.00 0.00 0.00 68 1015.7
20260830193302 72 158 1.0 5.0 0.00 0.00 0.00 67 1015.9
20260830190603 70 0 0.0 0.0 0.00 0.00 0.00 78 1016.2
20260830184802 69 0 0.0 0.0 0.00 0.00 0.00 78 1016.5
20260830183902 69 0 0.0 0.0 0.00 0.00 0.00 78 1016.6
20260830183002 69 0 0.0 0.0 0.00 0.00 0.00 77 1016.7
20260830182102 69 0 0.0 0.0 0.00 0.00 0.00 76 1016.8
20260830181202 69 0 0.0 0.0 0.00 0.00 0.00 75 1016.8
20260830180302 69 0 0.0 0.0 0.00 0.00 0.00 76 1017.0
20260830175402 69 0 0.0 0.0 0.00 0.00 0.00 73 1017.1
20260830173602 69 0 0.0 0.0 0.00 0.00 0.00 77 1017.3
20260830170902 70 0 0.0 0.0 0.00 0.00 0.00 71 1017.4
20260830170002 70 0 0.0 0.0 0.00 0.00 0.00 72 1017.7
20260830165102 69 0 0.0 0.0 0.00 0.00 0.00 74 1017.7
20260830162402 69 0 0.0 0.0 0.00 0.00 0.00 73 1018.0
20260830161502 69 149 0.0 2.0 0.00 0.00 0.00 75 1018.1
20260830155702 68 149 0.0 3.0 0.00 0.00 0.00 75 1018.4
20260830154802 68 147 0.0 1.0 0.00 0.00 0.00 79 1018.5
20260830153902 67 151 0.0 1.0 0.00 0.00 0.00 78 1018.5
20260830152102 67 154 0.0 1.0 0.00 0.00 0.00 79 1018.5
20260830151202 67 154 0.0 2.0 0.00 0.00 0.00 78 1018.3